Hourly Data Report for August 11, 2020

TORONTO CITY
ONTARIO
Current Station Operator: ECCC - MSC

43°40'00.000" N
79°24'00.000" W
112.50 m
6158355
71508
XTO

Download Data

Hourly Data (August 2020)
Hourly Data Report for August 11, 2020
TIME
LST
Temp Definition
°C
Dew Point Definition
°C
Rel Hum Definition
%
Precip. Amount Definition
mm

Wind Dir Definition
10's deg

Wind Spd Definition
km/h
Visibility Definition
km
Stn Press Definition
kPa
Hmdx Definition


Wind Chill Definition


Weather Definition


00:00 25.0 17.8 64 0.0       99.73 31   LegendNANA
01:00 24.6 18.2 68 0.0       99.68 31   LegendNANA
02:00 24.0 18.2 70 0.0       99.66 30   LegendNANA
03:00 23.8 18.4 72 0.0       99.59 30   LegendNANA
04:00 23.3 18.7 75 0.0       99.59 30   LegendNANA
05:00 23.9 19.1 75 0.0       99.57 31   LegendNANA
06:00 24.2 18.9 72 0.0       99.58 31   LegendNANA
07:00 23.8 19.0 74 0.0       99.61 31   LegendNANA
08:00 24.4 18.9 71 0.0       99.61 31   LegendNANA
09:00 25.6 19.3 68 0.0       99.60 33   LegendNANA
10:00 27.7 18.7 58 0.0       99.61 34   LegendNANA
11:00 27.4 18.4 58 0.0       99.63 34   LegendNANA
12:00 28.8 16.3 47 0.0       99.67 34   LegendNANA
13:00 28.5 16.4 48 0.0       99.71 33   LegendNANA
14:00 29.1 16.3 46 0.0       99.72 34   LegendNANA
15:00 28.7 17.0 49 0.0       99.76 34   LegendNANA
16:00 28.9 15.6 45 0.0       99.80 33   LegendNANA
17:00 28.5 15.4 45 0.0       99.85 33   LegendNANA
18:00 27.3 15.4 48 0.0       99.88 32   LegendNANA
19:00 26.1 10.7 38 0.0       99.92 28   LegendNANA
20:00 25.1 8.3 34 0.0       100.01 26   LegendNANA
21:00 23.9 8.3 37 0.0       100.11     LegendNANA
22:00 21.4 8.7 44 0.0       100.12     LegendNANA
23:00 20.4 10.5 53 0.0       100.18     LegendNANA

Notes on Data Quality.

Legend

  • E = Estimated
  • M = Missing
  • NA = Not Available*
  • [empty] = Indicates an unobserved value
Date modified: